User: anonymous   Login
Location: Unspecified
(0.0000°N, 0.0000°E)
Time: 01:09:47
(UTC+00:00)
Language:

MERIDIAN 6 - Orbit

View from above orbital plane
View from above orbital plane
View from above satellite
View from above satellite

Ground track
Ground track

The orbit data is extracted from the following two-line orbital elements,

1 38995U 12063A   24106.05365212  .00000356  00000-0  00000-0 0  9997
2 38995  65.1332  98.6548 7073188 237.0079  35.6461  2.00704534 83593
Epoch (UTC): 15 April 2024 01:17:15
Eccentricity: 0.7073188
inclination: 65.1332°
perigee height: 1392 km
apogee height: 38947 km
right ascension of ascending node: 98.6548°
argument of perigee: 237.0079°
revolutions per day: 2.00704534
mean anomaly at epoch: 35.6461°
orbit number at epoch: 8359

The dashed part of the orbit path shows where the satellite is in the earth's shadow,  

DLR